ATLAS 5 CENTAUR DEB, 46642

Orbit data source: Space-Track

ATLAS 5 CENTAUR DEB, 46642 is space debris in HEO originally from a launch on Wed, 17 Sep 2014 UTC launched from the Air Force Eastern Test Range (AFETR). Debris objects in space refer to the collection of defunct objects orbiting the Earth. Examples of debris include non-operational satellites, rocket bodies, and fragments generated from explosions, collisions, or faulty payload assembly.

Loading next visibility...
Identifier
46642, 2014-055CS
Orbit
HEO
Country
Flag of USUS
Related business
Flag of USUnited Launch Alliance/Lockheed Martin (US)
Manufacturer
Unknown
Mission
Spacecraft
Bus & Motor
Unknown
Mass
Unknown
Launch date (UTC)
2014-09-17 (11 years ago)
Launch vehicle
Unknown
Launch site
Air Force Eastern Test Range (AFETR)
Object type
Payload
Rocket body
Debris
Shape & HBR
Unknown shape, 1.1 m
Radar Cross Section
Small (<0.1 m²)

Expand to show TLE details & history
Last TLE update: 9 months ago

TLE from 9 months ago
0 ATLAS 5 CENTAUR DEB
1 46642U 14055CS  25067.21239931 -.00000008  00000-0  00000-0 0  9996
2 46642  19.4715 207.0437 4717618  55.9715 340.2293  1.83214109 29362
Epoch: 2025-03-08T05:05Z
TLE epoch observation values (Epoch: 2025-03-08T05:05:51.300Z)
Latitude
-0°
Longitude
-35.64827°
Altitude
10,999.88 km
Speed
5.634 km/s
True Right ascension
13h 47m 54s
True Declination
0° 00' 00"
Sunlit
Object was in daylight at epoch
Visualization orbit readout
Latitude
Unknown
Longitude
Unknown
Altitude
Unknown
Speed
Unknown
Apparent Right ascension
Unknown
Apparent Declination
Unknown
Sunlit
N/A
Visualization observer readout
Local Sidereal Time
05:02:20
Azimuth
Unknown
Elevation
Unknown
Doppler factor
Unknown
Orbital elements
Apogee altitude
35,145.582 km
Perigee altitude
8,525.371 km
Semi-major axis
28,213.614 km
Eccentricity
0.47176
Inclination
19.4715°
RAAN
207.0437°
Arg. of periapsis
55.9715°
True anomaly
303.84451°
Mean anomaly
340.2293°
Eccentric anomaly
324.55346°
Mean motion
0.45799 °/min
Orbital period
786.04 mins
BSTAR
0
Loading maneuver chart data...
Computing Atmospheric mass density...

Documentation

Showing up to 5 results
|